Terminal Aerodrome Forecast
Issued by NWS Wilmington, OH

Current Version | Previous Version | Graphics & Text | Print | Product List | Glossary On
Versions: 1 2 3 4 5 6 7 8 9 10 11 12 13
309
FTUS41 KILN 241125
TAFILN
TAF
KILN 241125Z 2412/2512 07003KT P6SM SKC
     FM241500 10007KT P6SM SKC
     FM250000 11003KT P6SM SCT250=

USA.gov is the U.S. government's official web portal to all federal, state and local government web resources and services.